Starlink 4415

operational
NORAD ID: 53465 Int'l Des: 2022-099 Owner: SPXS Country: US Constellation: starlink
LEOCIRCULARRETROGRADESSO

Über Starlink 4415

Beschreibung wird geladen...

Live-Position

3D-Globus wird geladen...

Nächste Überflüge

Höhenverlauf

Altitude vs Time

uPlot chart will show altitude changes over time

Zweizeiliger Elementsatz

1 53465U 22099A 25354.07173382 .00000195 00000-0 17707-4 0 9996
2 53465 97.6031 112.7390 0001098 100.5360 259.5990 15.05647460184052
Epoch: 20. Dez. 2025 • Age: 8 hours

Aktueller Status

Höhe 559.3 km
Geschwindigkeit 7.59 km/s
Subsatellitenpunkt 60.94°N, 139.53°W
Startdatum 12. Aug. 2022
Alter 3.3 years
Typ internet

Technische Details

Klassifizierung Payload
Masse 300.00 kg
Trockenmasse 275.00 kg
Gesamtmasse 300.00 kg
Länge 0.20 m
Durchmesser 2.80 m
Spannweite 9.00 m
Form Box + pan
Hersteller SPXS
Bus-Typ Starlink
Phasenstatus In Orbit
Besitzer/Staat SPXS/US

Große Konstellationen

Loading constellations...